Location: Amarillo Post Office Jordan Station
(35.1907°N, 101.9342°W)
Time: 16:36:47
(UTC+00:00)

Daily predictions for brighter satellites

Satellite Brightness Start Highest point End
(mag) Time Altitude Azimuth Time Altitude Azimuth Time Altitude Azimuth
Cosmos 540 Rocket 3.9 12:06:05 41° NW 12:06:05 41° NW 12:10:08 10° N
FALCON 9 DEB 4.4 12:12:05 23° S 12:13:27 36° SE 12:16:20 10° ENE
Cosmos 1689 Rocket 4.0 12:11:53 10° SE 12:14:27 29° ENE 12:17:03 10° N
Meteor 2-13 Rocket 4.4 12:08:47 10° N 12:14:59 88° W 12:21:07 10° S
Cosmos 2034 Rocket 4.0 12:11:48 10° SSW 12:18:05 63° W 12:24:24 10° N
FALCON 9 DEB 4.4 12:16:41 16° SSW 12:18:48 35° SE 12:21:42 10° ENE
YAOGAN 6 3.6 12:16:01 10° NNE 12:19:37 49° E 12:23:11 10° S
Meteor 1-16 Rocket 4.2 12:14:00 10° SSW 12:19:50 70° W 12:25:47 10° N
COSMO-SKYMED 1 2.4 12:15:35 10° S 12:19:54 71° WSW 12:23:30 15° NNW
ATLAS CENTAUR R/B 1.1 12:22:35 50° WNW 12:22:51 51° WNW 12:26:26 10° NNE
Nadezhda 4 Rocket 3.8 12:17:17 10° N 12:23:23 77° W 12:29:29 10° S
Cosmos 1634 Rocket 4.2 12:25:00 10° S 12:31:06 72° E 12:37:15 10° N
Cosmos 1703 3.1 12:28:14 10° N 12:32:10 84° W 12:36:04 10° S
H-2A R/B 2.6 12:29:11 10° N 12:32:51 61° WNW 12:36:33 10° SSW
SJ-7 4.4 12:28:53 10° NNE 12:33:01 85° E 12:37:04 10° S
NOSS 3-2 (A) 3.2 12:31:38 10° SW 12:37:03 62° NW 12:43:11 10° NNE
GEOS 3 Rocket 4.4 12:32:44 10° SE 12:37:53 52° NE 12:43:08 10° NNW
SL-8 R/B 3.7 12:35:35 25° WNW 12:38:24 77° SW 12:43:13 10° SE
USA 307 3.5 12:37:21 28° W 12:38:46 36° NW 12:42:42 10° NNE
CZ-2C R/B 4.1 12:35:54 10° SE 12:40:37 36° ENE 12:45:26 10° N
Cosmos 2228 3.7 12:37:14 10° S 12:41:23 56° E 12:45:33 10° NNE
Cosmos 1943 Rocket 4.1 12:37:08 10° N 12:42:00 28° ENE 12:46:49 10° ESE
ERS-2 2.3 12:40:15 10° S 12:43:46 48° W 12:47:12 11° NNW
SL-16 R/B 2.1 12:38:38 10° SSW 12:44:14 68° WNW 12:49:54 10° NNE
Cosmos 1606 Rocket 4.3 12:41:52 10° S 12:46:04 56° E 12:50:18 10° NNE
Cosmos 1346 Rocket 3.9 12:42:20 10° N 12:46:12 47° E 12:50:02 10° SSE
H-2A R/B 3.7 12:41:58 10° NNE 12:46:21 50° E 12:50:42 10° S
USA 305 3.8 12:44:47 23° WNW 12:46:26 30° NW 12:50:11 10° NNE
USA 308 3.7 12:45:48 22° W 12:47:41 31° NW 12:51:30 10° NNE
Chandra Rocket (1) 3.0 12:45:04 14° WSW 12:47:58 27° SSW 12:50:20 10° SE
NOSS 3-2 (C) 3.2 12:43:21 10° SSW 12:48:48 88° WNW 12:54:58 10° NNE
Cosmos 2278 Rocket 2.8 12:45:41 14° NW 12:49:51 35° WSW 12:54:54 10° SSW
Cosmos 1300 2.6 12:46:39 10° S 12:50:27 88° E 12:54:15 10° N
Cosmos 44 Rocket 4.1 12:47:11 17° NW 12:50:29 35° WSW 12:55:09 10° S
Spot 2 4.1 12:49:04 10° NNE 12:53:06 77° ESE 12:57:14 10° S
CZ-4B R/B 4.4 12:48:03 10° NNE 12:53:29 48° E 12:58:47 10° S
FALCON 9 DEB 2.8 12:51:20 10° SW 12:54:29 80° NW 12:57:37 10° NE
PSLV R/B 4.1 12:50:40 10° S 12:54:39 52° W 12:58:42 10° NNW
Cosmos 2237 Rocket 3.5 12:52:45 16° W 12:54:47 19° WNW 12:58:47 10° NNW
CZ-2C R/B 1.2 12:52:44 18° W 12:55:50 87° S 12:59:49 10° E
Cosmos 1626 Rocket 4.1 12:52:11 10° NNW 12:56:17 36° W 13:00:21 10° SSW
Lacrosse 5 rocket 1.0 12:53:52 15° NW 12:56:55 71° SW 13:00:32 10° SSE
MOS 1-B 4.5 12:52:13 10° NNE 12:58:01 81° ESE 13:03:47 10° SSW
CZ-3 Stage 3 1.5 12:55:42 13° WSW 12:58:01 30° S 12:59:40 10° ESE
USA 306 4.0 12:56:24 17° WNW 12:58:35 25° NW 13:02:07 10° NNE
Cosmos 2026 Rocket 4.0 12:53:24 10° N 12:59:47 86° W 13:06:10 10° S
Meteor 1-11 4.2 12:56:13 10° N 13:01:49 86° W 13:07:24 10° S
SMAP 3.3 12:57:18 10° NNE 13:01:58 74° ESE 13:06:36 10° S
Cosmos 2150 Rocket 4.1 12:57:52 10° NNW 13:03:16 88° ENE 13:08:42 10° SSE
CENTAUR R/B 2.4 13:00:14 10° SW 13:05:49 63° NW 13:12:25 10° NNE
FALCON 9 DEB 3.1 13:03:00 10° WSW 13:06:01 47° NW 13:09:01 10° NE
Cosmos 1400 Rocket 4.2 13:04:53 10° WSW 13:07:53 20° WNW 13:10:54 10° NNW
CZ-4B R/B 4.3 13:07:23 10° NW 13:09:30 15° WNW 13:11:37 10° WSW
Cosmos 1328 4.3 13:06:07 10° NNW 13:09:44 37° W 13:13:21 10° SSW
SL-4 R/B 3.7 13:11:47 11° WNW 13:14:00 16° NNW 13:16:30 10° NNE
PAYLOAD B 4.2 13:09:38 10° N 13:15:12 75° WNW 13:20:47 10° SSW
Cosmos 1939 Rocket 4.2 13:12:17 10° NNE 13:16:01 43° E 13:19:41 10° S
PSLV R/B 4.5 13:12:43 10° N 13:16:22 34° WNW 13:20:03 10° SW
Atlas Centaur 2 3.5 13:11:29 10° W 13:19:09 57° S 13:27:30 10° ESE
Cosmos 1758 Rocket 3.8 13:16:09 10° NNW 13:20:31 52° W 13:24:49 10° S
Radarsat Rocket 4.4 13:14:15 10° NNE 13:21:46 85° WNW 13:28:19 10° SSW
OAO 2 Rocket 3.9 13:17:30 10° W 13:22:12 46° SSW 13:26:54 10° SE
Cosmos 2098 Rocket 3.4 13:17:10 10° NNW 13:22:40 63° W 13:26:57 10° S
OAO 3 Copernicus 4.4 13:17:41 10° W 13:22:45 89° S 13:27:49 10° E
Cosmos 2297 3.8 13:19:53 10° NNW 13:25:38 76° WSW 13:31:20 10° SSE
Cosmos 2058 Rocket 3.3 13:21:47 10° S 13:26:09 77° E 13:30:34 10° N
